Regional Weather Roundup
Issued by NWS Upton, NY

Current Version | Previous Version | Text Only | Print | Product List | Glossary On
Versions: 1 2 3 4 5 6 7 8 9 10 11 12 13 14 15 16 17 18 19 20 21 22 23 24 25 26 27 28 29 30 31 32 33 34 35 36 37 38 39 40 41 42 43 44 45 46 47 48 49 50
320
ASUS41 KOKX 180108
RWROKX

Regional Weather Roundup
National Weather Service New York NY
800 PM EST WED JAN 17 2018

Note: "FAIR" indicates few or no clouds below 12,000 feet with no
significant weather and/or obstructions to visibility.

NYZ071-072-176-178-NJZ106-104-180200-
New York City Metro Area

CITY           SKY/WX    TMP DP  RH WIND       PRES   REMARKS
Central Park   FAIR      25  14  63 NW12G20   30.19S WCI  14
Bronx Bot Gard   N/A     27  16  63 W7        30.19R WCI  19
Bronx Lehman C   N/A     27  18  69 NW8         N/A  WCI  18
LaGuardia Arpt MOCLDY    27  17  66 NW12      30.18R WCI  17
Queens College   N/A     28  19  69 NW9         N/A  WCI  20
Kennedy Intl   CLOUDY    27  18  69 NW16      30.18S WCI  15
Breezy Point     N/A    N/A N/A N/A NW14G20     N/A
Brooklyn Coll    N/A     27  16  63 NW14        N/A  WCI  15
Staten Island    N/A     25  14  63 NW9         N/A  WCI  15
Newark/Liberty MOCLDY    25  13  60 NW14      30.20R WCI  13
Teterboro      FAIR      24  14  65 NW15G23   30.19R WCI  11
$$

NYZ177-179-078>081-180200-
Long Island New York

CITY           SKY/WX    TMP DP  RH WIND       PRES   REMARKS
Jones Beach      N/A    N/A N/A N/A NW14        N/A
Wantagh          N/A     30  23  74 NW9         N/A  WCI  22
Matinecock Pt    N/A    N/A N/A N/A NW14        N/A
Farmingdale    CLOUDY    28  22  78 NW8       30.15R WCI  20
MacArthur/ISP  CLOUDY    31  27  85 NW13      30.13S WCI  21
Shirley        CLOUDY    31  29  92 NW13      30.13S WCI  21
Mt Sinai Harb    N/A    N/A N/A N/A N9          N/A
Westhampton    CLOUDY    32  28  85 NW7       30.13S WCI  26
East Hampton   CLOUDY    32  31  98 NW5       30.10S WCI  27
Southold         N/A     34  32  93 NW9         N/A  WCI  26
Montauk          N/A     36  34  92 NW7       30.10S WCI  30
$$

NYZ052-065-067-180200-
Hudson Valley

CITY           SKY/WX    TMP DP  RH WIND       PRES   REMARKS
White Plains   MOCLDY    25  21  85 NW15      30.13S WCI  13
Larchmont Harb   N/A    N/A N/A N/A W13         N/A
Croton On Huds   N/A    N/A N/A N/A NW10        N/A
Somers           N/A     25  21  86 N6          N/A  WCI  18
Brewster         N/A     23  19  86 N8          N/A  WCI  14
Newburgh       CLOUDY    21  16  79 NW9       30.17F WCI  11
Montgomery     CLOUDY    21  11  65 NW14G21   30.16F WCI   8
Otisville        N/A     18  10  73 NW7         N/A  WCI   8
Warwick          N/A     18  10  73 W3          N/A
Suffern          N/A     21  14  73 NW6         N/A  WCI  14
Poughkeepsie   CLOUDY    24  16  71 N7        30.17F WCI  16
Albany         FAIR      16   7  67 W7        30.22F WCI   6
$$

NJZ001-105-106-008-010-013-015-019>022-104-180200-
New Jersey

CITY           SKY/WX    TMP DP  RH WIND       PRES   REMARKS
Newark/Liberty MOCLDY    25  13  60 NW14      30.20R WCI  13
Teterboro      FAIR      24  14  65 NW15G23   30.19R WCI  11
Caldwell       FAIR      21  13  71 NW10      30.21R WCI  10
Somerville     FAIR      22  11  62 NW8       30.20R WCI  12
Linden         FAIR      25  13  60 N15G21    30.21R WCI  12
Perth Amboy      N/A    N/A N/A N/A NW16        N/A
Sussex         FAIR      19   7  59 NW7       30.19F WCI  10
Andover        NOT AVBL
Trenton        FAIR      23  10  57 N10G22    30.20F WCI  12
Millville      FAIR      24  13  62 NW7       30.22F WCI  16
Atlantic City  FAIR      26  16  65 NW13      30.20F WCI  15
Wrightstown    FAIR      24  13  65 NW9       30.18S WCI  14
Toms River     FAIR      25  17  72 NW10      30.21R WCI  15
Belmar         FAIR      25  17  72 W12G20    30.19R WCI  14
$$

PAZ047>061-062-071-180200-
Eastern Pennsylvania

CITY           SKY/WX    TMP DP  RH WIND       PRES   REMARKS
Philadelphia   CLOUDY    25  10  53 NW14G23   30.25F WCI  13
Allentown      FAIR      19   6  57 NW5       30.24S WCI  12
Scranton       FAIR      13   7  77 SW3       30.20F
$$

CTZ002-004>006-009-010-012-RIZ004-006-007-MAZ004-011-015-180200-
Southern New England

 In CT

CITY           SKY/WX    TMP DP  RH WIND       PRES   REMARKS
Bradley Intl   CLOUDY    26  19  74 NW9       30.13F WCI  17
Hartford       CLOUDY    29  22  75 N6        30.14S WCI  23
Danbury        CLOUDY    26  19  74 N7        30.14F WCI  18
Wtrbury/Oxford FAIR      23  18  81 NW10G18   30.11S WCI  12
Norwalk Harbor   N/A    N/A N/A N/A NW18        N/A
Bridgeport     CLOUDY    29  20  69 NW10G22   30.14S WCI  20
Meriden        CLOUDY    26  18  71 NW8       30.13S WCI  18
New Haven      MOCLDY    30  23  75 N13G21    30.12F WCI  20
Chester        CLOUDY    30  27  86 NW8       30.09S WCI  23
Groton         MOCLDY    34  31  88 NW6       30.09F WCI  29
Willimantic    CLOUDY    33  29  85 NW8       30.10S WCI  26

 In RI

CITY           SKY/WX    TMP DP  RH WIND       PRES   REMARKS
Providence     CLOUDY    34  33  96 NW3       30.09F
Block Island   CLOUDY    34  34 100 N3        30.09F
Westerly       CLOUDY    34  34 100 CALM      30.10R FOG

In MA

CITY           SKY/WX    TMP DP  RH WIND       PRES   REMARKS
Boston         LGT SNOW  32  30  92 N7        30.08F FOG     WCI  26
Worcester      CLOUDY    29  26  89 NW7       30.04F WCI  22
Westfield      CLOUDY    25  19  78 N7        30.12F HAZE    WCI  17
Provincetown   CLOUDY    36  35  96 MISG        N/A
Nantucket      CLOUDY    36  36 100 NW9       30.06F FOG     WCI  29
$$

ANZ330-335-338-340-345-350-353-355-180200-
Coastal Marine Observations


STATION/POSITION TIME  SKY/WX   TEMP    WIND        PRES    VSBY  WAVE
                                AIR SEA DIR/SP/G                  HT/PER
                 (UTC)          (F)     (DEG/KT/KT) (MB)    (MI)  (FT/S)
NY Harb Entrance 2350            32 41  310/ 17/ 21 1020.6          4/11
20 S Fire Island 2350            33 42  320/ 17/ 19 1020.5          5/ 7
15 E Barnegat Li 0030               43                N/A           5/10
Hudson Canyon    2350            40 50  320/ 16/ 19 1019.8          6/11
Kings Point      0048            27 32              1022.7
Execution Rocks  NOT AVBL
Western LI Sound NOT AVBL
Central LI Sound NOT AVBL
Robbins Reef     0048            26                 1022.7
$$


>>>>>>>>>>>>>>>>>>>>>>>>>>>> KEY <<<<<<<<<<<<<<<<<<<<<<<<<<<
>                                                          <
>     SKY/WX - Sky Condition/Present Weather               <
>     TMP    - Temperature in Fahrenheit                   <
>     DP     - Dew Point in Fahrenheit                     <
>     RH     - Relative Humidity in Percent                <
>     WIND   - Direction (from) and Speed in MPH           <
>     PRES   - Mean Sea Level Pressure (inches of Hg)      <
>     WCI    - Wind Chill Index                            <
>     VSB    - Visibility in Miles                         <
>     HX     - Heat Index                                  <
>     TC     - Temperature in Celsius                      <
>     VRB    - Varibale Wind Direction                     <
>                                                          <
>>>>>>>>>>>>>>>>>>>>>>>>>>>> KEY <<<<<<<<<<<<<<<<<<<<<<<<<<<




USA.gov is the U.S. government's official web portal to all federal, state and local government web resources and services.